Reflectivity
-3 -18 -20 -20 -20 -20 0 7 10 7 -19 -14 9 29 -11 24 31 19 21 30 30 33 22 22 -5 2 15 -7 13 16 -18 -20 -19 8 13 11 8 6
-13 -4 -4 -11 -11 -16 -3 5 4 11 8 -3 12 13 0 25 22 26 5 30 29 23 18 22 21 -20 29 38 21 18 -4 -19 -20 -20 11 8 7 7
-2 -13 -2 -4 -2 -12 -7 -0 5 7 10 -4 -20 4 29 25 26 17 28 14 24 27 18 22 20 -20 -14 26 26 7 32 -3 -20 -7 8 8 3 -1
-3 -1 -1 -2 0 -14 -7 7 3 -20 6 8 1 -9 15 28 32 35 7 7 21 32 30 21 27 14 -20 -5 18 33 34 28 7 -8 -20 -16 3 -20
-6 -3 -6 -2 -2 -4 -1 -12 -16 -16 1 8 8 11 20 17 21 37 32 12 22 19 19 30 31 25 1 -11 24 37 38 20 -3 -3 -20 -20 -20 -20
-12 -11 -11 -5 -4 -11 -6 -1 -20 -10 -2 5 3 10 26 26 12 27 34 28 23 7 33 30 18 19 22 -4 -4 12 30 26 -13 -20 -20 11 -20 -20
2 3 -0 1 -3 -1 2 -2 -5 -4 5 6 -0 2 18 27 16 25 18 5 13 25 18 11 12 17 23 9 -8 -5 -6 14 32 3 -0 22 -16 -20
0 -7 -11 -1 5 9 10 11 7 -4 1 7 4 5 -11 16 16 35 33 31 19 32 16 38 20 34 29 22 22 18 0 44 11 8 16 21 8 4
7 -10 4 -10 4 -7 4 5 13 12 14 14 13 11 -10 -4 14 15 22 33 39 29 30 37 24 34 30 22 14 1 -18 -13 17 37 12 8 20 2
9 11 12 8 4 9 7 7 4 1 -11 2 11 11 7 9 20 18 15 19 23 33 29 14 16 14 29 13 19 15 -10 -11 14 36 28 27 32 19
-4 0 1 -10 -0 2 8 10 4 -17 -17 -15 -9 -4 -10 -13 13 15 17 25 7 3 28 24 23 37 36 16 23 5 6 20 -2 17 31 37 38 7
12 3 -18 -5 -1 5 5 10 11 3 -9 -20 -20 -2 -1 -2 10 14 21 27 24 20 25 27 28 35 37 21 21 6 22 30 15 13 22 -6 29 11
23 1 -3 -8 7 6 13 6 -7 -10 -5 3 -7 -9 1 -19 2 7 19 25 21 20 28 32 22 34 38 35 24 7 21 17 11 21 22 11 10 13
8 6 21 24 15 9 13 17 22 14 12 11 14 6 -10 4 8 5 6 17 15 14 21 37 39 43 34 23 31 24 29 16 -13 14 19 19 17 14
10 6 7 6 4 8 10 17 12 17 18 19 10 5 3 -17 -18 14 5 11 14 10 20 30 35 41 34 32 28 26 29 14 3 19 25 11 -10 11
2 -18 3 4 5 7 4 -5 17 17 13 12 9 -19 3 16 10 -10 7 -15 1 4 15 29 34 36 38 37 24 17 20 26 18 9 18 22 -2 15
-2 -17 -4 -13 -3 -3 -3 -2 1 14 15 24 13 16 14 9 -12 -20 -20 -17 -1 3 14 19 31 33 40 36 32 23 21 22 33 16 -9 -9 4 14
-20 -7 -2 -2 -2 -2 -1 -3 -1 -1 0 1 -2 -5 -12 3 2 5 4 2 7 -2 13 4 28 20 30 33 22 9 18 25 29 33 31 22 5 -16
-7 -4 -1 -3 -2 -1 0 0 -2 -2 0 -1 -2 -5 -3 2 -5 1 -19 13 11 4 12 3 29 27 14 31 28 26 29 36 36 33 30 23 15 25
-20 -3 -5 -4 -3 -3 -3 -1 -2 1 1 1 -13 1 2 3 4 1 1 9 11 9 17 12 17 27 20 4 18 28 36 25 25 23 23 27 29 26
-2 -12 -12 -18 -12 -3 -3 -2 2 -1 3 4 4 7 7 7 6 3 -10 -9 6 8 8 3 14 15 24 11 1 -3 23 24 5 8 21 25 26 29
-1 -1 -5 -18 -13 -2 0 -1 -1 2 2 4 0 6 8 8 9 7 3 -17 5 2 7 6 5 3 16 18 5 11 1 12 14 12 24 26 27 29
-2 -1 -1 -3 -5 -4 -1 1 1 0 -1 0 6 7 9 9 4 6 7 6 -1 3 3 7 4 -0 17 21 13 15 11 -10 -13 2 15 26 25 19
Wind_Speed
14 15 13 12 12 12 10 10 10 12 14 8 5 3 11 11 17 14 13 19 33 34 33 32 30 30 36 33 31 29 28 28 26 26 25 26 25 25
12 15 15 12 13 12 11 11 12 12 15 9 9 13 13 11 16 14 16 22 27 33 31 28 30 28 24 31 28 26 26 27 27 27 28 26 26 25
16 15 17 17 12 12 12 11 12 11 14 12 14 10 13 14 12 12 14 13 13 28 26 26 27 29 28 30 27 25 26 27 28 28 28 28 27 25
17 18 17 12 17 15 11 15 14 14 12 19 12 12 11 10 10 14 12 12 12 20 28 26 28 28 27 32 31 29 30 30 28 28 29 28 27 27
17 17 17 17 16 13 15 13 12 12 12 13 12 10 9 9 11 9 12 13 10 24 29 30 26 27 30 32 28 28 27 28 29 29 28 27 27 27
17 17 17 17 17 16 15 17 14 13 13 11 12 10 8 7 9 9 10 7 11 12 18 24 26 26 29 32 34 34 33 32 29 30 29 26 25 26
17 17 17 20 24 21 12 15 15 13 10 10 12 11 8 6 7 5 8 11 12 11 10 14 14 14 16 26 26 33 32 34 33 30 28 27 25 25
16 17 16 21 21 27 28 28 22 14 14 10 11 12 12 8 7 3 5 7 7 2 11 10 9 15 15 15 29 32 33 36 32 32 32 30 29 29
17 16 15 13 20 17 22 27 28 30 29 17 16 13 14 12 10 8 4 5 8 9 10 8 6 12 16 16 27 31 34 36 34 34 32 30 27 27
17 16 16 17 16 17 16 17 17 17 17 13 16 14 12 10 10 7 7 5 10 7 8 6 6 11 14 15 25 31 34 35 34 36 33 31 30 28
15 16 17 16 21 25 16 17 17 15 18 24 25 25 24 26 20 10 9 9 9 7 2 4 6 11 12 14 14 31 34 34 34 33 35 32 31 31
13 15 22 20 24 25 16 15 16 15 12 14 12 16 21 19 25 15 9 10 7 5 5 6 2 6 7 0 12 15 18 34 33 34 34 33 30 15
8 10 10 22 25 26 25 15 16 16 16 14 12 10 10 12 10 11 14 11 10 10 5 7 5 8 3 6 2 11 13 13 17 18 30 31 30 25
8 7 7 17 21 23 20 22 24 23 12 11 11 10 10 9 10 10 11 11 10 12 7 6 4 4 7 7 5 4 12 12 13 14 16 22 27 30
7 12 16 15 14 11 15 25 23 11 10 10 10 11 9 8 11 8 8 11 11 7 6 9 10 8 8 5 4 3 4 10 12 11 12 12 13 12
11 8 10 10 10 9 8 9 12 10 10 10 9 7 6 8 8 6 6 6 5 5 5 8 11 11 6 8 6 5 3 3 10 11 10 11 13 14
10 6 6 6 6 6 6 6 6 4 3 4 6 7 7 8 8 7 7 7 8 7 7 4 6 10 10 8 5 2 4 1 6 11 10 10 11 14
7 6 6 7 7 7 7 6 5 6 4 4 5 6 7 6 7 7 7 8 10 8 8 7 5 5 6 8 13 9 3 6 1 5 10 11 8 9
6 7 7 7 7 7 7 6 6 6 7 6 7 7 7 7 10 9 9 8 9 10 9 7 6 7 8 10 3 18 9 4 2 2 6 9 10 9
8 8 8 8 8 8 7 7 7 7 6 7 7 7 7 8 8 9 9 10 11 10 8 7 9 10 12 9 4 3 11 7 7 7 3 3 4 14
9 8 8 8 8 8 8 8 8 8 8 7 8 8 8 9 9 10 10 17 16 9 11 11 11 15 4 2 5 4 2 4 8 8 6 4 3 1
9 9 9 9 8 8 8 8 8 8 8 8 8 8 9 9 10 11 10 10 11 12 11 9 7 8 8 10 12 6 4 2 6 10 8 7 6 10
9 9 9 8 8 8 8 8 9 9 9 9 9 9 9 10 10 11 12 11 12 12 11 11 8 8 10 11 14 7 8 8 5 4 3 5 3 7
Wind_Direction
265 266 264 265 262 264 262 262 274 284 291 280 307 300 2 342 337 333 327 222 200 209 213 211 207 210 201 196 198 197 196 195 194 194 198 195 199 203
261 261 263 261 263 262 258 251 254 259 275 292 277 299 318 322 313 332 312 305 225 204 208 205 204 196 197 195 196 192 192 192 190 194 197 194 197 199
262 260 261 261 260 260 261 263 259 261 269 276 285 293 296 305 311 312 298 315 306 205 207 207 200 195 190 192 190 189 186 192 192 193 196 199 199 198
259 255 254 256 255 249 251 252 254 261 267 280 283 291 286 300 294 295 326 294 288 249 204 202 208 193 187 194 190 193 187 188 190 193 194 199 200 199
257 259 260 257 257 256 257 257 258 261 263 270 277 288 299 305 296 298 297 312 292 312 203 201 201 198 193 193 192 188 189 190 190 189 195 194 196 195
254 254 255 252 252 253 254 256 257 257 258 266 275 273 271 287 283 291 305 316 304 312 243 198 196 195 201 198 198 197 195 188 189 191 190 191 189 192
252 249 248 248 249 247 252 252 253 257 260 262 272 274 271 282 288 313 307 319 310 301 256 198 195 191 199 201 203 196 191 192 188 192 189 189 185 189
247 245 244 250 252 251 248 248 250 256 254 257 267 270 270 283 289 291 327 304 320 324 360 330 230 205 200 202 204 197 190 193 190 185 187 192 192 188
242 245 244 239 242 241 250 251 248 248 246 257 266 272 286 287 290 288 259 260 277 304 322 298 335 229 206 199 197 192 194 194 190 193 190 189 191 190
253 247 243 247 243 241 242 247 249 250 250 253 255 262 268 279 282 297 294 288 284 281 262 273 315 316 211 198 185 185 193 195 196 191 190 191 194 196
248 248 246 247 247 245 240 244 247 246 250 249 254 260 262 262 254 263 269 279 287 287 320 318 299 299 230 187 180 181 187 193 193 191 192 190 193 195
256 249 247 242 243 245 243 241 248 248 246 249 252 252 250 251 252 243 250 245 246 288 217 225 350 4 300 220 173 181 187 192 194 195 194 191 190 197
260 249 241 246 249 246 236 228 236 245 246 245 248 250 240 237 236 228 230 234 236 240 280 349 319 312 255 319 16 176 189 187 195 194 191 188 184 192
330 322 299 273 254 245 245 247 239 237 241 244 240 243 250 242 222 225 228 232 238 240 242 259 288 319 296 333 302 335 188 183 187 194 195 192 192 198
326 323 319 318 312 282 285 244 241 234 238 234 229 235 240 256 264 253 240 236 242 255 263 245 245 256 252 245 270 287 215 185 185 181 191 183 185 198
340 327 327 329 320 312 306 315 236 230 231 238 244 243 240 235 244 252 241 241 255 264 250 242 248 270 253 241 244 261 270 213 172 182 183 193 190 199
342 333 335 341 339 338 333 332 335 336 289 253 246 246 242 240 239 242 242 256 255 254 258 245 226 232 245 272 289 225 271 348 221 171 173 186 195 193
344 341 338 339 337 335 332 330 325 318 308 290 268 261 255 259 256 247 240 228 245 246 243 246 228 221 218 246 239 263 252 254 236 207 185 188 191 197
347 340 334 334 331 328 325 322 315 311 306 281 272 264 262 261 262 251 242 237 230 239 233 230 231 228 241 230 191 207 225 196 157 192 212 197 184 194
348 334 329 328 325 323 320 315 310 302 294 283 271 262 257 257 256 256 258 243 230 227 234 222 225 231 228 246 221 191 200 179 183 196 137 84 23 94
337 331 326 321 319 316 313 309 303 296 293 288 277 266 257 249 247 246 249 259 260 245 234 221 230 235 241 223 256 203 224 254 174 161 140 110 112 125
329 326 322 317 314 311 309 306 301 296 292 285 276 269 262 257 255 250 241 244 244 247 244 244 214 208 222 229 238 223 162 90 81 105 63 88 173 178
326 323 318 313 309 308 306 304 301 297 289 281 279 273 264 258 254 254 249 241 236 244 243 235 226 216 225 233 220 225 165 153 157 132 46 31 5 110